Showing default

HOTSAT-1, 56954

Orbit data source: Space-Track

HOTSAT-1, 56954 is a payload satellite owned by Satellite Vu (UK) in SSO that was launched on Mon, 12 Jun 2023 UTC via an FALCON 9 launch vehicle from the Air Force Western Test Range (AFWTR). Payload-class satellites include a variety of spacecraft equipped with specific instruments for various scientific and technological missions. These include communications satellites like Starlink; space stations such as the ISS; scientific satellites like the Hubble; Earth observation satellites from companies like Planet Labs, Umbra, and HawkEye 360; GPS; miniature CubeSats for education and research; and military/defense satellites.

Loading next visibility...
Identifier
56954, 2023-084Y
Orbit
SSO
Country
Flag of UKUK
Related business
Manufacturer
SSTL
Mission
Non-operational Commercial Imaging
Bus & Motor
DARKCARB, H2O AOCS
Mass
130 kg wet, 130 kg dry
Launch date (UTC)
2023-06-12 (3 years ago)
Launch vehicle
FALCON 9
Launch site
Air Force Western Test Range (AFWTR)
Object type
Payload
Rocket body
Debris
Shape & HBR
Box + Cone + 1 Pan, 0.6 m
Radar Cross Section
0.625 m², Large (>1 m²)

Expand to show TLE details & history
Last TLE update: 9 hours ago

TLE from 9 hours ago
0 HOTSAT-1
1 56954U 23084Y   26267.28329964  .00003276  00000-0  13992-3 0  9997
2 56954  97.6363  43.2473 0001164  40.3112 319.8211 15.23622927182185
Epoch: 2026-09-24T06:47Z
TLE epoch observation values (Epoch: 2026-09-24T06:47:57.088Z)
Latitude
-0.00001°
Longitude
-61.86286°
Altitude
497.401 km
Speed
7.616 km/s
True Right ascension
02h 52m 59s
True Declination
0° 00' 00"
Sunlit
Object was in full shadow at epoch
Visualization orbit readout
Latitude
Unknown
Longitude
Unknown
Altitude
Unknown
Speed
Unknown
Apparent Right ascension
Unknown
Apparent Declination
Unknown
Sunlit
N/A
Visualization observer readout
Local Sidereal Time
09:07:24
Azimuth
Unknown
Elevation
Unknown
Doppler factor
Unknown
Orbital elements
Apogee altitude
492.694 km
Perigee altitude
491.095 km
Semi-major axis
6,870.032 km
Eccentricity
0.00012
Inclination
97.6363°
RAAN
43.2473°
Arg. of periapsis
40.3112°
True anomaly
319.81249°
Mean anomaly
319.8211°
Eccentric anomaly
319.8168°
Mean motion
3.81158 °/min
Orbital period
94.45 mins
BSTAR
0.00013992
Loading maneuver chart data...
Computing Atmospheric mass density...

Documentation

Showing up to 5 results
|